Regional Weather Roundup
Issued by NWS Charleston, SC

Current Version | Previous Version | Graphics & Text | Print | Product List | Glossary On
Versions: 1 2 3 4 5 6 7 8 9 10 11 12 13 14 15 16 17 18 19 20 21 22 23 24 25 26 27 28 29 30 31 32 33 34 35 36 37 38 39 40 41 42 43 44 45 46 47 48 49 50
000
ASUS42 KCHS 270613
RWRCHS

REGIONAL WEATHER ROUNDUP
NATIONAL WEATHER SERVICE CHARLESTON SC
200 AM EDT SAT AUG 27 2016

NOTE: "FAIR" INDICATES FEW OR NO CLOUDS BELOW 12,000 FEET WITH NO
SIGNIFICANT WEATHER AND/OR OBSTRUCTIONS TO VISIBILITY.

NOT ALL STATIONS ARE QUALITY CONTROLLED. USE DATA WITH CAUTION...
ESPECIALLY DEWPOINT OBSERVATIONS.

SCZ027-030-031-034>040-042>050-270700-
...SOUTHEAST SOUTH CAROLINA...

CITY           SKY/WX    TMP DP  RH WIND       PRES   REMARKS
N CHARLESTON   CLEAR     74  71  91 N5        30.07F
6HR MIN TEMP:  74; 6HR MAX TEMP:  83;

WATERFRONT PRK   N/A     82  72  71 VRB2      30.05F
MOUNT PLEASANT FAIR      73  72  94 CALM      30.08S
JOHNS ISLAND   FAIR      73  72  94 CALM      30.07F
PINOPOLIS        N/A     75  73  94 MISG      30.01F
MONCKS CORNER  FAIR      72  70  94 CALM      30.08F
SUMMERVILLE    NOT AVBL
BEAUFORT MCAS  CLEAR     74  71  91 CALM      30.07S
6HR MIN TEMP:  72; 6HR MAX TEMP:  83;

BEAUFORT ARPT  FAIR      73  72  94 CALM      30.06S
HILTON HEAD IS CLEAR     72  70  94 CALM      30.07S
WALTERBORO     CLEAR     73  73 100 CALM      30.08F
ALLENDALE      FAIR      73  72  94 CALM      30.08S

...SOUTHERN MIDLANDS AND PEE DEE...

CITY           SKY/WX    TMP DP  RH WIND       PRES   REMARKS
GEORGETOWN     FAIR      70  68  94 CALM      30.08F
KINGSTREE      FAIR      70  68  94 CALM      30.09S
ORANGEBURG     CLEAR     75  71  87 CALM      30.10S
6HR MIN TEMP:  74; 6HR MAX TEMP:  87;

BARNWELL       NOT AVBL
AIKEN          FAIR      73  70  88 S3        30.13F
MANNING        FAIR      72  70  94 CALM      30.09F
COLUMBIA       MOCLDY    81  72  74 S3        30.09S
6HR MIN TEMP:  81; 6HR MAX TEMP:  90;

SUMTER         CLEAR     77  71  82 MISG      30.07F
6HR MIN TEMP:  77; 6HR MAX TEMP:  88;

FLORENCE       CLEAR     76  71  85 CALM      30.10F
6HR MIN TEMP:  76; 6HR MAX TEMP:  87;

MYRTLE BEACH   CLEAR     79  66  65 CALM      30.10S
N MYRTLE BEACH CLEAR     75  72  90 N3        30.08F
6HR MIN TEMP:  75; 6HR MAX TEMP:  83;


$$

GAZ063-065-086>088-099>101-113>116-118-119-134>141-150-270700-
...SOUTHEAST GEORGIA...

CITY           SKY/WX    TMP DP  RH WIND       PRES   REMARKS
SAVANNAH ARPT  CLEAR     72  69  90 CALM      30.07S
6HR MIN TEMP:  71; 6HR MAX TEMP:  83;

HUNTER AAF     CLEAR     71  71 100 N2        30.04S
6HR MIN TEMP:  70; 6HR MAX TEMP:  81;

FORT STEWART   CLEAR     68  66  94 CALM      30.04F
6HR MIN TEMP:  69; 6HR MAX TEMP:  81;

STATESBORO     CLEAR     72  71  98 CALM      30.08S
SYLVANIA       NOT AVBL
CLAXTON        FAIR      69  69 100 CALM      30.08S

...CSRA...CENTRAL AND FAR SOUTHEAST GEORGIA...

CITY           SKY/WX    TMP DP  RH WIND       PRES   REMARKS
THOMSON        PTCLDY    79  75  87 MISG      30.13F
AUGUSTA-BUSH   CLEAR     74  72  93 CALM      30.08F
6HR MIN TEMP:  74; 6HR MAX TEMP:  87;

AUGUSTA-DANIEL CLEAR     80  71  74 SE3       30.10F
SWAINSBORO     FAIR      75  70  83 CALM      30.09F
VIDALIA        CLEAR     73  72  94 CALM      30.08F
EASTMAN        FAIR      74  62  66 CALM      30.10S
HAZLEHURST     FAIR      74  71  90 CALM      30.06F
ALMA           CLEAR     67  66  97 CALM      30.06F
6HR MIN TEMP:  67; 6HR MAX TEMP:  84;

WAYCROSS         N/A     70  70 100 CALM      30.06F
JESUP          FAIR      70  70 100 CALM      30.06F
BAXLEY         FAIR      70  70 100 CALM      30.07S
BRUNSWICK        N/A     70  70 100 CALM      30.05S FOG
SAINT SIMONS   CLEAR     75  69  81 CALM      30.04F
6HR MIN TEMP:  75; 6HR MAX TEMP:  82;


$$

SCZ027-028-034-036>038-045-046-048>050-GAZ119-141-270700-
...LAKE AND SUPPLEMENTAL COASTAL OBSERVATIONS...

STATION/POSITION TIME  TEMP    WIND        PRES    WAVE   SWELL
                       AIR SEA DIR/SP/G            HT/PER HT/PER/DIR
                 (UTC) (F)     (DEG/KT/KT) (MB)    (FT/S) (FT/S/D)
WINYAH BAY       NOT AVBL
LAKE MURRAY      0500   83     190/  8/ 11 1018.6R
ACE BASIN NERRS  NOT AVBL
FORT PULASKI     0500   79 86  100/  2/  2 1018.3F
SAPELO ISLAND    0500   74        CALM     1018.0S

$$

ANZ835-935-AMZ111-154-330-350-352-354-370-450-454-472-270700-
...C-MAN AND BUOY OBSERVATIONS...

STATION/POSITION TIME  TEMP    WIND        PRES    WAVE   SWELL
                       AIR SEA DIR/SP/G            HT/PER HT/PER/DIR
                 (UTC) (F)     (DEG/KT/KT) (MB)    (FT/S) (FT/S/D)
BUOY 41004       0550   82 84   60/  8/  8 1017.3F   3/ 8   2/ 80/ 8
BUOY 41008       0550   83 85   80/  8/  8 1017.1F   3/ 6   3/130/ 6
FOLLY BEACH CMAN 0500   82     130/  5/  6 1018.7F
CAPERS NEARSHORE 0508   82 84  110/  6/ 10 1018.1F
FRIPP NEARSHORE  0508   82 86   90/  6/ 10 1017.4F


STATION/POSITION TIME  TEMP    WIND        PRES    WAVE   SWELL
                       AIR SEA DIR/SP/G            HT/PER HT/PER/DIR
                 (UTC) (F)     (DEG/KT/KT) (MB)    (FT/S) (FT/S/D)
5E ST. MARYS GA  0501      85                N/A     4/ 8
FRYING PAN BUOY  0500   82 85  100/  8/ 10 1018.1S
BUOY 41025       0550   81 85  160/  6/  8 1018.8R   2/ 8   2/100/ 8
CAPE LOOKOUT NC  0600   81     150/  5/  6 1018.5S
BUOY 41002       0550   82 84   80/ 10/ 12 1016.9R   4/10   3/130/10
BUOY 41010       NOT AVBL
ST AUGUSTINE FL  0600   81 83   60/  9/  9 1016.9F


$$




USA.gov is the U.S. government's official web portal to all federal, state and local government web resources and services.